Regional Weather Roundup
Issued by NWS

Home | Current Version | Previous Version | Graphics & Text | Print | Product List | Glossary On
Versions: 1 2 3 4 5 6 7 8 9 10 11 12 13 14 15 16 17 18 19 20 21 22 23 24 25 26 27 28 29 30 31 32 33 34 35 36 37 38 39 40 41 42 43 44 45 46 47 48 49 50
754
ASUS43 KIND 181609
RWRIN

WEATHER ROUNDUP FOR INDIANA
NATIONAL WEATHER SERVICE INDIANAPOLIS IN
1100 AM EST WED JAN 18 2017

NOTE: "FAIR" INDICATES FEW OR NO CLOUDS BELOW 12,000 FEET WITH NO
SIGNIFICANT WEATHER AND/OR OBSTRUCTIONS TO VISIBILITY.

* - STATION DOES NOT REPORT WEATHER SUCH AS PRECIPITATION OR FOG.

+ - STATION NOT QUALITY CONTROLLED BY THE NATIONAL WEATHER SERVICE.
    USE DATA WITH CAUTION...ESPECIALLY DEWPOINT AND RELATIVE
    HUMIDITY OBSERVATIONS.

INZ001>003-010>013-019-020-181700-
NORTHWEST INDIANA

CITY           SKY/WX    TMP DP  RH WIND       PRES   REMARKS
GARY /AIRPORT/ CLOUDY    36  34  93 W12       30.16S FOG
KNOX *+        CLOUDY    34  23  64 W6        30.16S WCI  29
LA PORTE +     CLOUDY    34  33  96 W7        30.16S FOG     WCI  28
MICHIGAN CITY+ CLOUDY    34  34 100 W6        30.16S WCI  29
MONTICELLO +   CLOUDY    34  32  94 W9        30.18R WCI  26
RENSSELAER +   FOG       34  34 100 SW7       30.19R VSB 3/4 WCI  28
VALPARAISO     CLOUDY    35  34  96 SW7       30.16R FOG     WCI  29

$$

LMZ046-743>745-181700-
SOUTHERN LAKE MICHIGAN

STATION/POSITION TIME  TEMP    WIND        PRES    WAVE
                       AIR SEA DIR/SP/G            HT
                 (UTC) (F)     (DEG/KT/KT) (MB)    (FT)
BURNS HARBOR     1540   35     250/  6/ 11 1021.7R

$$

INZ004-005-014>016-021>024-181700-
NORTH CENTRAL INDIANA

CITY           SKY/WX    TMP DP  RH WIND       PRES   REMARKS
ELKHART        CLOUDY    36  34  93 W8        30.15S FOG
GOSHEN         CLOUDY    35  31  85 W9        30.15S FOG     WCI  28
LOGANSPORT +   CLOUDY    34  32  93 W8        30.19R WCI  27
PERU/GRISSOM   CLOUDY    35  35 100 W9        30.17R WCI  27
ROCHESTER +    CLOUDY    36  36 100 W7        30.18R FOG
SOUTH BEND     CLOUDY    34  34 100 W8        30.15S FOG     WCI  27
WARSAW +       CLOUDY    34  32  93 W9        30.16R WCI  26

$$

INZ006>009-017-018-025>027-181700-
NORTHEAST INDIANA

CITY           SKY/WX    TMP DP  RH WIND       PRES   REMARKS
ANGOLA *+      CLOUDY    36  36 100 W7        30.13R
AUBURN +       CLOUDY    36  32  87 W7        30.16R FOG
FORT WAYNE     DRIZZLE   36  33  89 W10       30.17R FOG
HUNTINGTON +   CLOUDY    35  34  96 W6        30.17S WCI  30
KENDALLVILLE + CLOUDY    34  34 100 W10G17    30.14R FOG     WCI  26

$$

INZ028-029-035-036-043>045-051>053-181700-
WEST CENTRAL INDIANA

CITY           SKY/WX    TMP DP  RH WIND       PRES   REMARKS
CRAWFORDSVL +  CLOUDY    33  33 100 SW8       30.21S WCI  26
GREENCASTLE +  CLOUDY    36  34  93 W6        30.22S FOG
LAFAYETTE      CLOUDY    34  33  96 W8        30.21R WCI  27
TERRE HAUTE    CLOUDY    37  35  92 W7        30.24R FOG

$$

INZ030>032-037>040-046>048-054>057-064-065-181700-
CENTRAL INDIANA

CITY           SKY/WX    TMP DP  RH WIND       PRES   REMARKS
ANDERSON       CLOUDY    36  34  93 W12       30.20R FOG
CP ATTERBURY + CLOUDY    37  36  93 W5        30.23R
COLUMBUS       LGT RAIN  37  37 100 W7        30.24R FOG
FRANKFORT +    CLOUDY    37  34  90 W9        30.21R
GREENWOOD *+   CLOUDY    38  37  93 W7        30.22R
INDIANAPOLIS   DRIZZLE   37  34  89 W8        30.21R
-EAGLE CREEK   CLOUDY    36  33  89 VRB6      30.21R
KOKOMO +       CLOUDY    35  33  92 W10       30.19R WCI  27
MARION +       CLOUDY    34  34 100 W10       30.19R WCI  26
MT COMFORT *+  CLOUDY    34  34 100 W9        30.21R WCI  26
SHELBYVILLE    CLOUDY    39  35  86 W8        30.21R
ZIONSVILLE +   CLOUDY    33  32  96 W6        30.21S FOG     WCI  28

$$

INZ033-034-041-042-049-050-058-059-181700-
EAST CENTRAL INDIANA

CITY           SKY/WX    TMP DP  RH WIND       PRES   REMARKS
MUNCIE         CLOUDY    37  33  85 W9        30.18S

$$

INZ060-061-067>069-081>083-085>088-181700-
SOUTHWEST INDIANA

CITY           SKY/WX    TMP DP  RH WIND       PRES   REMARKS
EVANSVILLE     CLOUDY    42  34  73 CALM      30.27S
HUNTINGBURG *+ CLOUDY    40  36  86 W6        30.27R
WASHINGTON +   CLOUDY    39  35  86 W7        30.26R

$$

INZ062-063-066-070>080-084-089>092-181700-
SOUTH CENTRAL AND SOUTHEAST INDIANA

CITY           SKY/WX    TMP DP  RH WIND       PRES   REMARKS
BLOOMINGTON    CLOUDY    38  35  89 W5        30.22R FOG
MADISON *+     CLOUDY    37  36  93 SW6       30.25R
SEYMOUR +      CLOUDY    41  39  93 W7        30.24R

$$





USA.gov is the U.S. government's official web portal to all federal, state and local government web resources and services.